Location: Chervonnoye
(48.6000°N, 34.4000°E)
Time: 13:18:25
(UTC+00:00)

deb Kosmos-2237 - Pass Details

Date: 19 June 2021
Orbit: 850 x 1045 km, 71.0° (Epoch: 25 July)

Event Time Altitude Azimuth Distance (km) Brightness Sun altitude
Rises 20:23:02 0° 244° (WSW) 3,584 ? -15.7°
Reaches altitude 10° 20:25:50 10° 255° (WSW) 2,675 ? -15.9°
Maximum altitude 20:31:15 30° 316° (NW) 1,687 ? -16.2°
Drops below altitude 10° 20:36:54 10° 16° (NNE) 2,800 ? -16.4°
Sets 20:39:55 0° 27° (NNE) 3,778 ? -16.6°
